Showing default

ION SCV-013, 58300

Orbit data source: Space-Track

ION SCV-013, 58300 is a payload satellite owned by D-ORBIT (IT) in SSO that was launched on Sat, 11 Nov 2023 UTC via an FALCON 9 launch vehicle from the Air Force Western Test Range (AFWTR). Payload-class satellites include a variety of spacecraft equipped with specific instruments for various scientific and technological missions. These include communications satellites like Starlink; space stations such as the ISS; scientific satellites like the Hubble; Earth observation satellites from companies like Planet Labs, Umbra, and HawkEye 360; GPS; miniature CubeSats for education and research; and military/defense satellites.

Loading next visibility...
Identifier
58300, 2023-174AW
Orbit
SSO
Country
Flag of ITIT
Related business
Manufacturer
D-ORBIT
Mission
Operational Commercial Technology
Bus & Motor
ION-SC, PM200
Mass
220 kg wet, 150 kg dry
Launch date (UTC)
2023-11-11 (2 years ago)
Launch vehicle
FALCON 9
Launch site
Air Force Western Test Range (AFWTR)
Object type
Payload
Rocket body
Debris
Shape & HBR
Box, 0.2 m
Radar Cross Section
0.240 m², Medium (>0.1 m² and < 1m²)

Expand to show TLE details & history
Last TLE update: 6 hours ago

TLE from 6 hours ago
0 ION SCV-013
1 58300U 23174AW  26126.80898199  .00001925  00000-0  12654-3 0  9990
2 58300  97.6185 182.4330 0098013 337.8671  21.8337 15.04955345135319
Epoch: 2026-05-06T19:24Z
TLE epoch observation values (Epoch: 2026-05-06T19:24:56.043Z)
Latitude
-0.00003°
Longitude
26.53534°
Altitude
491.738 km
Speed
7.654 km/s
True Right ascension
12h 09m 43s
True Declination
0° 00' 00"
Sunlit
Object was in full shadow at epoch
Visualization orbit readout
Latitude
Unknown
Longitude
Unknown
Altitude
Unknown
Speed
Unknown
Apparent Right ascension
Unknown
Apparent Declination
Unknown
Sunlit
N/A
Visualization observer readout
Local Sidereal Time
09:19:14
Azimuth
Unknown
Elevation
Unknown
Doppler factor
Unknown
Orbital elements
Apogee altitude
616.529 km
Perigee altitude
480.746 km
Semi-major axis
6,926.774 km
Eccentricity
0.0098
Inclination
97.6185°
RAAN
182.433°
Arg. of periapsis
337.8671°
True anomaly
22.25621°
Mean anomaly
21.8337°
Eccentric anomaly
22.04447°
Mean motion
3.76484 °/min
Orbital period
95.62 mins
BSTAR
0.00012654
Loading maneuver chart data...
Computing Atmospheric mass density...
Loading historical data...
Loading historical data...
Loading historical data...
Loading historical data...
Loading historical data...
Loading historical data...
Loading historical data...

Documentation

Showing up to 5 results
|